Regional Weather Roundup
Issued by NWS Goodland, KS

Home | Current Version | Previous Version | Graphics & Text | Print | Product List | Glossary On
Versions: 1 2 3 4 5 6 7 8 9 10 11 12 13 14 15 16 17 18 19 20 21 22 23 24 25 26 27 28 29 30 31 32 33 34 35 36 37 38 39 40 41 42 43 44 45 46 47 48 49 50
000
ASUS43 KGLD 190808
RWRGLD

GOODLAND FORECAST AREA HOURLY WEATHER ROUNDUP
NATIONAL WEATHER SERVICE GOODLAND KS
200 AM MDT FRI SEP 19 2014

...OFFICIAL OBSERVATIONS...

CITY           SKY/WX    TMP DP  RH WIND       PRES   REMARKS
GOODLAND KS    CLEAR     65  58  78 S15       29.94S
HILL CITY KS   CLEAR     68  62  81 S6        29.91F
IMPERIAL NEB   CLEAR     60  56  86 CALM      29.87F
MCCOOK NEB     FOG       58  58 100 NE3       29.88S VSB 1/4
AKRON CO       CLEAR     66  54  65 SW18      29.95S
BURLINGTON CO  CLEAR     65  56  72 SW14      29.96F
LIMON CO       CLEAR     55  50  83 CALM      30.03F
$$

...UNOFFICIAL OBSERVATIONS...

CITY           SKY/WX    TMP DP  RH WIND       PRES   REMARKS
COLBY KS       CLEAR     66  63  88 S9        29.93S
GOVE KS          N/A     68  32  26 MISG        N/A
NORTON KS      CLEAR     64  59  82 SE10      29.89S
SHARON SPRINGS   N/A     62  58  87 S8          N/A
TRIBUNE KS     CLEAR     64  63  94 S10       29.99
WAKEENEY KS      N/A     67  60  77 MISG        N/A
TRENTON NEB      N/A     59  32  36 S6          N/A
YUMA CO          N/A     64  54  70 SW9         N/A
$$


USA.gov is the U.S. government's official web portal to all federal, state and local government web resources and services.